Location: ??????
(55.6500°N, 37.8000°E)
Time: 03:42:55
(UTC+00:00)

ADEOS II - Pass Details

Date: 14 April 2024
Orbit: 796 x 799 km, 98.7° (Epoch: 23 May)

Event Time Altitude Azimuth Distance (km) Brightness Sun altitude
Rises 00:42:03 0° 14° (NNE) 3,321 6.3 -13.5°
Reaches altitude 10° 00:44:25 10° 11° (N) 2,386 5.3 -13.3°
Maximum altitude 00:49:33 56° 294° (WNW) 953 2.3 -12.7°
Enters shadow 00:53:33 17° 221° (SW) 1,950 3.5 -12.3°
